Tracking 25707 objects as of 29-Jun-2022
HD Live streaming from Space Station
objects crossing your sky now

STARLINK-3963

Track STARLINK-3963 now!
10-day predictions
STARLINK-3963 is classified as:


NORAD ID: 52643
Int'l Code: 2022-052AX
Perigee: 355.4 km
Apogee: 358.9 km
Inclination: 53.2 °
Period: 91.5 minutes
Semi major axis: 6728 km
RCS: Unknown
Launch date: May 14, 2022
Source: United States (US)
Launch site: AIR FORCE EASTERN TEST RANGE (AFETR)
aabbcc
Your satellite tracking list
Your tracking list is empty




NASA's NSSDC Master Catalog

Two Line Element Set (TLE):
1 52643U 22052AX  22180.58334491  .00121622  00000-0  86164-3 0  9993
2 52643  53.2128 213.1817 0002640  20.0529 205.6430 15.73111966  1300
Source of the keplerian elements: AFSPC